This is the latest recevied weather packets stored in our database for station/object KD2ZLA. If no packets are shown the sender has not sent any weather packets the latest 10 day(s).
| Time | Temp. | Humidity | Pressure | Rain* | Wind** | Luminosity | Snow |
|---|---|---|---|---|---|---|---|
| 1778021114 | 15.56° C | 59% | 1005 hPa | 0 mm | - | 22 W/m² | - |
| 1778020811 | 16.11° C | 58% | 1004.9 hPa | 0 mm | - | 26 W/m² | - |
| 1778020508 | 16.11° C | 57% | 1004.9 hPa | 0 mm | - | 23 W/m² | - |
| 1778020204 | 16.11° C | 56% | 1004.9 hPa | 0 mm | - | 34 W/m² | - |
| 1778019901 | 16.11° C | 57% | 1004.8 hPa | 0 mm | - | 40 W/m² | - |
| 1778019596 | 16.67° C | 56% | 1004.8 hPa | 0 mm | - | 67 W/m² | - |
| 1778019294 | 16.67° C | 57% | 1004.8 hPa | 0 mm | - | 77 W/m² | - |
| 1778018991 | 16.67° C | 58% | 1004.7 hPa | 0 mm | - | 35 W/m² | - |
| 1778018688 | 16.67° C | 58% | 1004.7 hPa | 0 mm | - | 31 W/m² | - |
| 1778018385 | 16.67° C | 59% | 1004.2 hPa | 0 mm | - | 35 W/m² | - |
| 1778018084 | 17.22° C | 60% | 1004.1 hPa | 0 mm | - | 35 W/m² | - |
| 1778017781 | 17.22° C | 60% | 1004 hPa | 0 mm | - | 58 W/m² | - |
| 1778017479 | 17.78° C | 60% | 1003.8 hPa | 0 mm | - | 93 W/m² | - |
| 1778017176 | 18.33° C | 61% | 1003.6 hPa | 0 mm | - | 125 W/m² | - |
| 1778016873 | 18.89° C | 61% | 1003.2 hPa | 0 mm | - | 108 W/m² | - |
| 1778016569 | 18.89° C | 60% | 1003.1 hPa | 0 mm | - | 113 W/m² | - |
| 1778016267 | 19.44° C | 59% | 1003.1 hPa | 0 mm | - | 80 W/m² | - |
| 1778015963 | 19.44° C | 58% | 1003.2 hPa | 0 mm | - | 78 W/m² | - |
| 1778015660 | 19.44° C | 58% | 1003 hPa | 0 mm | - | 49 W/m² | - |
| 1778015357 | 19.44° C | 58% | 1002.9 hPa | 0 mm | - | 76 W/m² | - |
| 1778015063 | 19.44° C | 58% | 1002.6 hPa | 0 mm | - | 118 W/m² | - |
| 1778014751 | 20° C | 57% | 1002.6 hPa | 0 mm | - | 141 W/m² | - |
| 1778014449 | 20° C | 57% | 1002.7 hPa | 0 mm | - | 219 W/m² | - |
| 1778014145 | 20° C | 57% | 1002.4 hPa | 0 mm | - | 191 W/m² | - |
| 1778013843 | 20° C | 58% | 1002.4 hPa | 0 mm | - | 239 W/m² | - |
* Rain latest hour (hover to see other rain measurements)
** Current wind speed in m/s (hover to see current wind gust speed)